This demonstration page uses our WeatherBlox Daily Observations layout. Learn more.

Left ArrowRight Arrow

39.51506, -84.39828

Hourly Observations for July 4, 2022

Temp ( °F °C ) Dew Point ( °F °C ) Humidity (%) Winds ( mph kmh ) Pressure ( in mb ) Visibility ( mi km ) Precip ( " mm )
12:15 am 00:15 Clear 66 19.1 61 16 82 82 Calm 30.14 1021 10 16 0.00 0.00
12:35 am 00:35 Clear 65 18.1 61 16.1 88 88 N 6 9 30.14 1021 10 16 0.00 0.00
12:55 am 00:55 Clear 64 17.5 61 16.2 92 92 Calm 30.14 1021 10 16 0.00 0.00
1:15 am 01:15 Clear 63 17.4 61 16.2 93 93 Calm 30.15 1021 10 16 0.00 0.00
1:35 am 01:35 Clear 64 17.7 61 16.2 91 91 Calm 30.15 1021 7 11 0.00 0.00
1:55 am 01:55 Clear 63 17.3 62 16.6 96 96 Calm 30.15 1021 7 11 0.00 0.00
2:15 am 02:15 Clear with Mist and Fog 62 16.8 62 16.6 99 99 Calm 30.15 1021 7 11 0.00 0.00
2:35 am 02:35 Clear 63 17.4 61 16.3 93 93 Calm 30.15 1021 7 11 0.00 0.00
2:55 am 02:55 Clear with Mist and Fog 63 17 62 16.7 98 98 Calm 30.15 1021 7 11 0.00 0.00
3:15 am 03:15 Clear with Mist and Fog 63 17 62 16.6 98 98 Calm 30.15 1021 7 11 0.00 0.00
3:35 am 03:35 Clear with Mist and Fog 62 16.9 62 16.4 97 97 N 3 6 30.15 1021 5 8 0.00 0.00
3:55 am 03:55 Clear with Mist and Fog 62 16.9 62 16.4 97 97 Calm 30.15 1021 7 11 0.00 0.00
4:15 am 04:15 Clear with Mist and Fog 61 16 61 16 100 100 Calm 30.15 1021 4 6 0.00 0.00
4:35 am 04:35 Clear with Mist and Fog 62 16.6 61 16.3 98 98 Calm 30.15 1021 5 8 0.00 0.00
4:55 am 04:55 Clear with Mist and Fog 61 16 61 16 100 100 N 3 6 30.15 1021 5 8 0.00 0.00
5:15 am 05:15 Clear with Mist and Fog 61 16.3 61 16.1 99 99 Calm 30.15 1021 5 8 0.00 0.00
5:35 am 05:35 Clear with Mist and Fog 61 16 60 15.8 99 99 Calm 30.15 1021 4 6 0.00 0.00
5:55 am 05:55 Clear with Mist and Fog 61 16 N/A N/A N 3 6 30.16 1021 4 6 0.00 0.00
6:15 am 06:15 Clear with Mist and Fog 61 16 N/A N/A Calm 30.16 1021 3 5 0.00 0.00
6:35 am 06:35 Sunny with Mist and Fog 61 16 N/A N/A Calm 30.16 1021 3 5 0.00 0.00
6:55 am 06:55 Sunny with Mist and Fog 61 16 N/A N/A Calm 30.16 1021 4 6 0.00 0.00
7:15 am 07:15 Sunny with Mist and Fog 63 17 N/A N/A Calm 30.16 1021 4 6 0.00 0.00
7:35 am 07:35 Sunny with Mist and Fog 65 18.3 64 17.7 96 96 Calm 30.17 1022 4 6 0.00 0.00
7:55 am 07:55 Sunny with Mist and Fog 68 19.8 65 18.1 90 90 Calm 30.17 1022 7 11 0.00 0.00
8:15 am 08:15 Sunny 70 21.2 64 17.9 82 82 NNE 3 6 30.16 1021 7 11 0.00 0.00
8:35 am 08:35 Sunny 72 22.2 64 17.9 77 77 Calm 30.16 1021 10 16 0.00 0.00
8:55 am 08:55 Sunny 74 23.3 65 18.3 74 74 NNE 3 6 30.16 1021 10 16 0.00 0.00
9:15 am 09:15 Sunny 76 24.5 64 17.7 66 66 NNE 3 6 30.15 1021 10 16 0.00 0.00
9:35 am 09:35 Sunny 79 26.2 62 16.8 56 56 S 3 6 30.15 1021 10 16 0.00 0.00
9:55 am 09:55 Sunny 81 27.2 59 14.9 47 47 ESE 5 7 30.16 1021 10 16 0.00 0.00
10:15 am 10:15 Sunny 82 27.9 60 15.3 46 46 ESE 8 13 30.15 1021 10 16 0.00 0.00
10:35 am 10:35 Sunny 83 28.3 58 14.4 43 43 ESE 9 15 30.15 1021 10 16 0.00 0.00
10:55 am 10:55 Sunny 84 28.8 58 14.5 42 42 SE 9 15 30.14 1021 10 16 0.00 0.00
11:15 am 11:15 Sunny 84 29.1 56 13.3 38 38 SE 10 17 30.14 1021 10 16 0.00 0.00
11:35 am 11:35 Sunny 85 29.7 55 12.8 35 35 SE 10 17 30.14 1021 10 16 0.00 0.00
11:55 am 11:55 Sunny 87 30.3 56 13.1 35 35 SE 12 19 30.13 1020 10 16 0.00 0.00
12:15 pm 12:15 Sunny 87 30.6 56 13.1 34 34 SE 6 9 30.13 1020 10 16 0.00 0.00
12:35 pm 12:35 Sunny 86 29.9 55 12.9 35 35 SE 12 19 30.12 1020 10 16 0.00 0.00
12:55 pm 12:55 Sunny 86 30 55 12.8 35 35 SE 10 17 30.12 1020 10 16 0.00 0.00
1:15 pm 13:15 Sunny 88 30.9 55 13 33 33 ESE 8 13 30.10 1019 10 16 0.00 0.00
1:35 pm 13:35 Sunny 87 30.8 54 12.2 32 32 ESE 9 15 30.10 1019 10 16 0.00 0.00
1:55 pm 13:55 Sunny 89 31.6 54 12.3 31 31 SSE 13 20 30.09 1019 10 16 0.00 0.00
2:15 pm 14:15 Sunny 88 31.2 53 11.5 30 30 SSE 12 19 30.09 1019 10 16 0.00 0.00
2:35 pm 14:35 Sunny 89 31.5 52 11 28 28 S 9 15 30.08 1019 10 16 0.00 0.00
2:55 pm 14:55 Sunny 90 32 54 12.2 30 30 SE 8 13 30.07 1018 10 16 0.00 0.00
3:15 pm 15:15 Sunny 90 32 51 10.6 27 27 S 9 15 30.07 1018 10 16 0.00 0.00
3:35 pm 15:35 Sunny 90 32.3 52 11.1 27 27 SSE 9 15 30.06 1018 10 16 0.00 0.00
3:55 pm 15:55 Sunny 90 32.4 53 11.5 28 28 S 10 17 30.05 1017 10 16 0.00 0.00
4:15 pm 16:15 Sunny 91 32.5 55 13 30 30 SSE 7 11 30.04 1017 10 16 0.00 0.00
4:35 pm 16:35 Sunny 90 32.3 56 13.1 31 31 SSE 9 15 30.03 1017 10 16 0.00 0.00
4:55 pm 16:55 Sunny 91 32.5 56 13.4 31 31 SE 10 17 30.03 1017 10 16 0.00 0.00
5:15 pm 17:15 Sunny 91 32.6 55 13 30 30 S 8 13 30.02 1016 10 16 0.00 0.00
5:35 pm 17:35 Sunny 91 32.6 55 12.9 30 30 S 12 19 30.02 1016 10 16 0.00 0.00
5:55 pm 17:55 Sunny 90 32.4 56 13.1 31 31 SSW 9 15 30.02 1016 10 16 0.00 0.00
6:15 pm 18:15 Sunny 90 32.3 55 12.8 30 30 SSW 7 11 30.02 1016 10 16 0.00 0.00
6:35 pm 18:35 Sunny 90 32.2 55 13 31 31 SW 5 7 30.02 1016 10 16 0.00 0.00
6:55 pm 18:55 Sunny 90 32.2 55 12.8 31 31 Calm 30.01 1016 10 16 0.00 0.00
7:15 pm 19:15 Sunny 89 31.9 56 13.3 32 32 SSE 5 7 30.02 1017 10 16 0.00 0.00
7:35 pm 19:35 Sunny 89 31.4 56 13.6 34 34 Calm 30.02 1017 10 16 0.00 0.00
7:55 pm 19:55 Sunny 88 31.1 58 14.4 36 36 Calm 30.02 1017 10 16 0.00 0.00
8:15 pm 20:15 Sunny 85 29.4 61 16.2 45 45 Calm 30.02 1017 10 16 0.00 0.00
8:35 pm 20:35 Sunny 85 29.7 58 14.5 40 40 SE 7 11 30.01 1016 10 16 0.00 0.00
8:55 pm 20:55 Sunny 85 29.2 59 14.8 41 41 SSE 7 11 30.01 1016 10 16 0.00 0.00
9:15 pm 21:15 Clear 84 28.7 59 15 43 43 S 5 7 30.01 1016 10 16 0.00 0.00
9:35 pm 21:35 Clear 80 26.4 61 16.3 54 54 SSW 5 7 30.02 1017 10 16 0.00 0.00
9:55 pm 21:55 Clear 82 27.7 60 15.7 48 48 S 6 9 30.01 1016 10 16 0.00 0.00
10:15 pm 22:15 Clear 77 25.2 63 17.3 62 62 Calm 30.02 1017 10 16 0.00 0.00
10:35 pm 22:35 Clear 77 25.1 63 17.1 61 61 WSW 3 6 30.01 1016 10 16 0.00 0.00
10:55 pm 22:55 Clear 81 27 61 16.2 52 52 S 8 13 30.00 1016 10 16 0.00 0.00
11:15 pm 23:15 Clear 79 26.1 62 16.4 55 55 SE 5 7 30.00 1016 10 16 0.00 0.00
11:35 pm 23:35 Clear 76 24.2 64 17.6 67 67 N 3 6 30.01 1016 10 16 0.00 0.00
11:55 pm 23:55 Clear 73 23 64 17.8 73 73 NNE 3 6 30.03 1017 10 16 0.00 0.00

Powered by AerisWeather